FW0979 Weather Reports


Display with metric or nautical units.
time (UTC)temp
F
wind
direction
speed
MPH
gust
MPH
rain 1hr
in
rain 24hr
in
rain mn
in
humidity
%
barometer
mb
20260506213040 80 259 14.0 24.0 0.00 0.00 0.00 14 1007.7
20260506211540 80 219 11.0 19.0 0.00 0.00 0.00 16 1007.9
20260506210035 79 281 13.0 30.0 0.00 0.00 0.00 19 1008.2
20260506204531 79 276 9.0 21.0 0.00 0.00 0.00 20 1008.4
20260506203021 77 360 11.0 23.0 0.00 0.00 0.00 20 1008.6
20260506201523 77 291 15.0 23.0 0.00 0.00 0.00 20 1008.8
20260506200018 76 360 7.0 14.0 0.00 0.00 0.00 23 1008.8
20260506194517 76 267 10.0 18.0 0.00 0.00 0.00 21 1009.1
20260506193018 75 231 7.0 14.0 0.00 0.00 0.00 27 1008.9
20260506191510 74 360 2.0 9.0 0.00 0.00 0.00 32 1009.1
20260506190010 74 337 3.0 9.0 0.00 0.00 0.00 32 1009.5
20260506184507 74 304 3.0 7.0 0.00 0.00 0.00 34 1009.9
20260506183005 71 360 3.0 8.0 0.00 0.00 0.00 37 1010.2
20260506181510 72 137 2.0 7.0 0.00 0.00 0.00 36 1010.5
20260506180100 69 160 4.0 9.0 0.00 0.00 0.00 41 1010.7
20260506174554 67 88 5.0 10.0 0.00 0.00 0.00 43 1010.7
20260506173116 66 124 5.0 11.0 0.00 0.00 0.00 44 1010.9
20260506171545 65 89 5.0 11.0 0.00 0.00 0.00 48 1010.8
20260506170056 64 360 5.0 11.0 0.00 0.00 0.00 50 1010.9
20260506164538 62 360 5.0 10.0 0.00 0.00 0.00 51 1010.9
20260506163041 61 100 5.0 10.0 0.00 0.00 0.00 53 1010.9
20260506161532 60 110 5.0 10.0 0.00 0.00 0.00 55 1011.0
20260506160029 58 96 5.0 11.0 0.00 0.00 0.00 58 1010.9
20260506154525 58 360 6.0 0.0 0.00 0.00 0.00 59 1010.8
20260506153024 57 96 6.0 12.0 0.00 0.00 0.00 61 1010.9
20260506151516 55 360 7.0 12.0 0.00 0.00 0.00 64 1010.8
20260506150016 55 81 7.0 12.0 0.00 0.00 0.00 66 1010.7
20260506144508 54 74 6.0 11.0 0.00 0.00 0.00 69 1010.6
20260506143009 52 75 8.0 12.0 0.00 0.00 0.00 72 1010.4
20260506141503 52 360 6.0 12.0 0.00 0.00 0.00 73 1010.4
20260506140100 51 72 8.0 15.0 0.00 0.00 0.00 73 1010.4
20260506134558 51 65 9.0 14.0 0.00 0.00 0.00 75 1010.2
20260506133107 51 106 8.0 17.0 0.00 0.00 0.00 75 1009.9
20260506131546 52 360 9.0 17.0 0.00 0.00 0.00 74 1009.8
20260506130040 53 94 8.0 14.0 0.00 0.00 0.00 72 1009.4
20260506124532 54 75 5.0 17.0 0.00 0.00 0.00 68 1008.8
20260506123023 56 50 4.0 8.0 0.00 0.00 0.00 60 1008.5
20260506121515 58 345 2.0 7.0 0.00 0.00 0.00 55 1008.2
20260506120007 59 343 4.0 6.0 0.00 0.00 0.00 51 1007.9
20260506114502 60 340 2.0 6.0 0.00 0.00 0.00 48 1007.6
20260506113056 61 340 6.0 9.0 0.00 0.00 0.00 45 1007.7
20260506111551 63 360 5.0 9.0 0.00 0.00 0.00 40 1007.2
20260506110049 63 266 7.0 10.0 0.00 0.00 0.00 40 1007.0
20260506104608 63 360 5.0 10.0 0.00 0.00 0.00 41 1006.8
20260506103043 63 360 5.0 8.0 0.00 0.00 0.00 42 1006.5
20260506101542 63 247 5.0 11.0 0.00 0.00 0.00 44 1006.3
20260506100043 62 238 4.0 9.0 0.00 0.00 0.00 47 1006.3
20260506094538 61 360 3.0 8.0 0.00 0.00 0.00 51 1006.2
20260506093032 61 360 5.0 8.0 0.00 0.00 0.00 55 1006.1
20260506091529 61 360 4.0 7.0 0.00 0.00 0.00 56 1006.1
20260506090025 62 360 5.0 9.0 0.00 0.00 0.00 54 1005.8
20260506084521 62 217 4.0 7.0 0.00 0.00 0.00 54 1005.8
20260506083034 62 360 3.0 7.0 0.00 0.00 0.00 53 1005.7
20260506081516 62 281 3.0 6.0 0.00 0.00 0.00 53 1005.4
20260506073009 63 360 2.0 4.0 0.00 0.00 0.00 51 1005.3
20260506071508 63 360 2.0 5.0 0.00 0.00 0.00 50 1005.3
20260506061555 64 288 4.0 5.0 0.00 0.00 0.00 49 1004.8
20260506044542 66 360 3.0 5.0 0.00 0.00 0.00 44 1004.7
20260506043049 66 287 3.0 6.0 0.00 0.00 0.00 43 1004.7
20260506041545 67 360 5.0 8.0 0.00 0.00 0.00 42 1004.4
20260506040047 67 360 2.0 5.0 0.00 0.00 0.00 43 1004.5
20260506034540 67 295 3.0 6.0 0.00 0.00 0.00 43 1004.5
20260506033038 67 297 3.0 7.0 0.00 0.00 0.00 42 1004.2
20260506031539 68 312 6.0 10.0 0.00 0.00 0.00 41 1003.8
20260506030037 69 293 6.0 10.0 0.00 0.00 0.00 39 1003.7
20260506024543 70 281 6.0 10.0 0.00 0.00 0.00 37 1003.8
20260506023036 71 360 8.0 15.0 0.00 0.00 0.00 36 1003.8
20260506021550 72 360 9.0 15.0 0.00 0.00 0.00 35 1003.5
20260506020034 72 277 11.0 14.0 0.00 0.00 0.00 34 1003.4
20260506014534 72 290 10.0 18.0 0.00 0.00 0.00 34 1003.3
20260506013033 72 284 9.0 15.0 0.00 0.00 0.00 33 1003.1
20260506011533 73 276 13.0 19.0 0.00 0.00 0.00 33 1002.9
20260506010044 73 289 13.0 18.0 0.00 0.00 0.00 32 1002.8
20260506004530 74 360 14.0 23.0 0.00 0.00 0.00 31 1002.8
20260506003030 75 276 16.0 25.0 0.00 0.00 0.00 31 1002.9
20260506001528 75 297 15.0 24.0 0.00 0.00 0.00 30 1002.8
20260506000028 76 294 20.0 31.0 0.00 0.00 0.00 30 1002.9
20260505234535 76 264 16.0 27.0 0.00 0.00 0.00 29 1002.7
20260505233029 77 283 15.0 29.0 0.00 0.00 0.00 28 1002.6
20260505231529 78 302 22.0 34.0 0.00 0.00 0.00 27 1002.4
20260505230024 77 245 10.0 20.0 0.00 0.00 0.00 27 1002.3
20260505224527 77 259 10.0 19.0 0.00 0.00 0.00 27 1002.4
20260505223019 76 269 12.0 19.0 0.00 0.00 0.00 28 1002.5
20260505221617 76 360 11.0 22.0 0.00 0.00 0.00 28 1002.6
20260505220013 75 274 12.0 22.0 0.00 0.00 0.00 29 1002.7
20260505214514 75 283 10.0 22.0 0.00 0.00 0.00 28 1003.1